Weather History for Siemreap, Cambodia

Change the Weather History Date:

Tuesday, October 22, 2013

  Actual Average Record
Temperature  
Mean Temperature 82 °F -  
Max Temperature 87 °F - - ()
Min Temperature 77 °F - - ()
Cooling Degree Days 17    
Growing Degree Days 32 (Base 50)    
Moisture  
Dew Point 76 °F    
Average Humidity 78    
Maximum Humidity 94    
Minimum Humidity 62    
Precipitation  
Precipitation 0.00 in - - ()
Sea Level Pressure  
Sea Level Pressure 29.84 in    
Wind  
Wind Speed 3 mph ()    
Max Wind Speed 8 mph    
Max Gust Speed -    
Visibility 6.1 miles    
Events Rain    
T = Trace of Precipitation, MM = Missing Value Source: Averaged Metar Reports

Daily Weather History Graph

Daily Weather History Graph

Search for Another Location

Airport:

Trip Planner

Search our weather history database for the weather conditions in past years. The results will help you decide how hot, cold, wet, or windy it might be!

Date:

Astronomy

Oct. 22, 2013 Rise Set
Actual Time 5:56 AM ICT 5:41 PM ICT
Civil Twilight 5:34 AM ICT 6:03 PM ICT
Nautical Twilight 5:09 AM ICT 6:28 PM ICT
Astronomical Twilight 4:44 AM ICT 6:53 PM ICT
Moon 8:20 PM ICT (10/22) 8:33 AM ICT (10/22)
Length of Visible Light 12h 28m
Length of Day
11h 45m
Waning Gibbous, 90% of the Moon is Illuminated
Oct 22
Waning Gibbous
Oct 27
Last Quarter
Nov 3
New
Nov 10
First Quarter
Nov 17
Full

Hourly Weather History & Observations

Time (ICT) Temp. Heat Index Dew Point Humidity Pressure Visibility Wind Dir Wind Speed Gust Speed Precip Events Conditions
12:00 AM 78.8 °F - 77.0 °F 94% 29.86 in 5.6 mi North 3.5 mph - N/A   Unknown
12:30 AM 78.8 °F - 77.0 °F 94% 29.83 in 5.6 mi NE 3.5 mph - N/A   Unknown
1:00 AM 77.0 °F - 75.2 °F 94% 29.83 in 5.6 mi NNE 3.5 mph - N/A   Unknown
7:00 AM 77.0 °F - 73.4 °F 89% 29.89 in 5.6 mi Variable 2.3 mph - N/A   Scattered Clouds
7:30 AM 80.6 °F 86.2 °F 75.2 °F 84% 29.89 in 5.6 mi Variable 1.2 mph - N/A   Scattered Clouds
8:00 AM 80.6 °F 85.4 °F 73.4 °F 79% 29.89 in 5.6 mi Variable 2.3 mph - N/A   Scattered Clouds
8:30 AM 82.4 °F 89.5 °F 75.2 °F 79% 29.89 in 6.2 mi Variable 2.3 mph - N/A   Scattered Clouds
9:00 AM 84.2 °F 92.3 °F 75.2 °F 74% 29.89 in 6.2 mi Variable 3.5 mph - N/A   Scattered Clouds
9:30 AM 84.2 °F 90.9 °F 73.4 °F 70% 29.89 in 6.2 mi East 4.6 mph - N/A   Scattered Clouds
10:00 AM 84.2 °F 90.9 °F 73.4 °F 70% 29.89 in 6.2 mi Variable 3.5 mph - N/A   Scattered Clouds
10:30 AM 86.0 °F 95.1 °F 75.2 °F 70% 29.89 in 6.2 mi Variable 2.3 mph - N/A   Scattered Clouds
11:00 AM 87.8 °F 95.6 °F 73.4 °F 62% 29.89 in 6.2 mi Variable 2.3 mph - N/A   Scattered Clouds
11:30 AM 86.0 °F 95.1 °F 75.2 °F 70% 29.86 in 6.2 mi SSW 6.9 mph - N/A   Scattered Clouds
12:00 PM 87.8 °F 95.6 °F 73.4 °F 62% 29.86 in 6.2 mi SSW 5.8 mph - N/A   Scattered Clouds
12:30 PM 86.0 °F 93.4 °F 73.4 °F 66% 29.83 in 5.6 mi SW 6.9 mph - N/A Rain Light Rain
1:00 PM 82.4 °F 89.5 °F 75.2 °F 79% 29.83 in 5.6 mi WSW 4.6 mph - N/A   Scattered Clouds
1:30 PM 84.2 °F 92.3 °F 75.2 °F 74% 29.83 in 6.2 mi SSW 8.1 mph - N/A   Scattered Clouds
2:00 PM 86.0 °F 95.1 °F 75.2 °F 70% 29.80 in 6.2 mi South 6.9 mph - N/A   Scattered Clouds
2:30 PM 86.0 °F 95.1 °F 75.2 °F 70% 29.80 in 6.2 mi WSW 4.6 mph - N/A   Scattered Clouds
3:00 PM 86.0 °F 95.1 °F 75.2 °F 70% 29.77 in 6.2 mi SW 4.6 mph - N/A   Scattered Clouds
3:30 PM 86.0 °F 95.1 °F 75.2 °F 70% 29.77 in 6.2 mi WSW 5.8 mph - N/A   Scattered Clouds
4:00 PM 87.8 °F 97.6 °F 75.2 °F 66% 29.77 in 6.2 mi Variable 3.5 mph - N/A   Partly Cloudy
4:30 PM 86.0 °F 95.1 °F 75.2 °F 70% 29.80 in 6.2 mi Variable 2.3 mph - N/A   Partly Cloudy
5:00 PM 86.0 °F 95.1 °F 75.2 °F 70% 29.80 in 6.2 mi Variable 3.5 mph - N/A   Partly Cloudy
5:30 PM 84.2 °F 92.3 °F 75.2 °F 74% 29.80 in 6.2 mi Variable 3.5 mph - N/A   Partly Cloudy
6:00 PM 84.2 °F 92.3 °F 75.2 °F 74% 29.80 in 6.2 mi Variable 2.3 mph - N/A   Partly Cloudy
6:30 PM 84.2 °F 92.3 °F 75.2 °F 74% 29.80 in 6.2 mi WSW 1.2 mph - N/A   Partly Cloudy
7:00 PM 84.2 °F 94.1 °F 77.0 °F 79% 29.83 in 6.2 mi Calm Calm - N/A   Partly Cloudy
7:30 PM 84.2 °F 94.1 °F 77.0 °F 79% 29.83 in 6.2 mi Variable 1.2 mph - N/A   Partly Cloudy
8:00 PM 84.2 °F 96.1 °F 78.8 °F 84% 29.83 in 6.2 mi NNW 2.3 mph - N/A   Partly Cloudy
8:30 PM 82.4 °F 92.4 °F 78.8 °F 89% 29.86 in 6.2 mi WNW 1.2 mph - N/A   Partly Cloudy
9:00 PM 82.4 °F 92.4 °F 78.8 °F 89% 29.86 in 6.2 mi Variable 2.3 mph - N/A   Partly Cloudy
9:30 PM 82.4 °F 92.4 °F 78.8 °F 89% 29.86 in 6.2 mi NNW 1.2 mph - N/A   Partly Cloudy
10:00 PM 82.4 °F 92.4 °F 78.8 °F 89% 29.86 in 6.2 mi North 1.2 mph - N/A   Partly Cloudy
10:30 PM 82.4 °F 92.4 °F 78.8 °F 89% 29.86 in 6.2 mi North 2.3 mph - N/A   Partly Cloudy
11:00 PM 82.4 °F 92.4 °F 78.8 °F 89% 29.86 in 6.2 mi Variable 1.2 mph - N/A   Partly Cloudy
11:30 PM 82.4 °F 92.4 °F 78.8 °F 89% 29.86 in 6.2 mi Variable 1.2 mph - N/A   Partly Cloudy